Вернуться в каталог

THOR ABLESTAR DEB

АктивенLEO
NORAD 403·DEBRIS·🇺🇸 United States

Запущен Jun 29, 1961 с Cape Canaveral Space Force Station

Loading…

Ближайшие Пролёты (ближайшие 24 часа)

TLE

СвежийSource: Space-Track

Эпоха: Sep 14, 2026, 11:18 UTC

1 00403U 61015EC  26257.47143541 -.00000023  00000-0  48052-4 0  9990
2 00403  66.8400  72.1060 0015901 127.6454 260.5056 13.81247771283484

Отслеживайте THOR ABLESTAR DEB в реальном времени с AllMySat

Download on the App Store